Location: Newark
(19.2128°S, 49.7858°W)
Time: 17:31:23
(UTC+00:00)

OTV 5 (USA 277) - Visible Passes

Search period start: 24 August 2019 00:00
Search period end: 03 September 2019 00:00
Orbit: 305 x 329 km, 54.5° (Epoch: 20 August)

Date Brightness Start Highest point End Pass type
(mag) Time Alt. Az. Time Alt. Az. Time Alt. Az.
26 Aug ? 08:25:51 10° NNE 08:27:14 13° ENE 08:28:37 10° E visible
27 Aug ? 08:39:00 10° NNW 08:41:38 62° ENE 08:44:18 10° SE visible
28 Aug ? 08:54:19 13° WNW 08:56:09 24° SW 08:58:26 10° S visible
